Skip to main content Skip to accessibility
This website is not compatible with your web browser. You should install a newer browser. If you live in Jersey and need help upgrading call the States of Jersey web team on 440099.
Homegov.je

Information and public services for the Island of Jersey

L'înformâtion et les sèrvices publyis pouor I'Île dé Jèrri

  • Choose the service you want to log in to:

  • gov.je

    Update your notification preferences

  • one.gov.je

    Access government services

  • CAESAR

    Clear goods through customs or claim relief

  • Talentlink

    View or update your States of Jersey job application

Local METARs

METAR EGJJ 270520Z AUTO 22022G32KT 2200 RA OVC002/// 09/09 Q0992 REDZ

METAR EGJB 270520Z 25023KT 4500 1500SE -RADZ VCFG FEW000 BKN001 BKN003 10/10 Q0991

METAR LFRD 270500Z AUTO 21019KT 7000 SCT009 BKN016 OVC026 10/09 Q0995 BECMG 27020G35KT BKN012

METAR LFRC 270500Z AUTO 18016KT 5000 -RA BR OVC004/// ///TCU 05/05 Q0992

 

 

 

​Times are in Greenwich Mean Time (GMT) and not British Summer Time (BST). They will be one hour different during BST.

Back to top
rating button